[ hide orbit diagram ]
For accurate long-term ephemerides, please instead use our Horizons system.This orbit viewer was implemented using two-body methods, and hence should not be used for determining accurate long-term trajectories (over several years or decades) or planetary encounter circumstances.
Orbital Elements at Epoch 2459200.5 (2020-Dec-17.0) TDB
Reference: JPL 24 (heliocentric ecliptic J2000)
Element | Value | Uncertainty (1-sigma) | Units |
e | .1577554616997018 | 4.7131e-08 | |
a | 2.599483069762428 | 1.3817e-08 | au |
q | 2.189400417911498 | 1.2144e-07 | au |
i | 14.46261884208937 | 4.7016e-06 | deg |
node | 6.409489778061502 | 1.3739e-05 | deg |
peri | 324.9546703995514 | 1.87e-05 | deg |
M | 130.0619159719905 | 1.2586e-05 | deg |
tp | 2458647.434506126584 (2019-Jun-12.93450613) | 5.3457e-05 | TDB |
period | 1530.836881084451 4.19 | 1.2205e-05 3.342e-08 | d yr |
n | .2351654865703096 | 1.8749e-09 | deg/d |
Q | 3.009565721613358 | 1.5997e-08 | au |
|
| | Orbit Determination Parameters
Additional Information
|
[ show covariance matrix ]
Physical Parameter Table
Parameter |
Symbol |
Value |
Units |
Sigma |
Reference |
Notes |
absolute magnitude |
H |
15.69 |
|
n/a |
E2021B55 |
|
|
101238 (1998 SQ79) Discovered 1998-Sep-26 by LINEAR at Socorro |
Reference: 20051019/Numbers.arc | Last Updated: 2005-10-26 |
|
[ hide close-approach data ]
Close-Approach Data ...sorted by Date/Time (TDB)
|
Date/Time (TDB) |
Time Uncertainty (days_HH:MM) |
Body |
Nominal Distance (au) |
Minimum Distance (au) |
Maximum Distance (au) |
V-relative (km/s) |
V-infinity (km/s) |
JD (TDB) |
Time Uncertainty (minutes) |
Semi-major axis (km) |
Semi-minor axis (km) |
range-LOV angle (deg) |
N-sigma |
BP |
Orbit Ref. |
Reference |
Modified |
1938-Jul-11 11:36 |
00:02 |
Hygie |
0.0358364459287897 |
0.0358295489242135 |
0.0358433526894559 |
4.86980329869675 |
4.86980307730263 |
2429090.983652591 |
1.76535980644119 |
1004.04278017473 |
54.8725495612155 |
70.2171539082509 |
91838.2475335126 |
T |
24 |
CATAB v2.0f-lin.ifort 2021-Feb-24 08:27:43 |
2021-Feb-24 08:27 |
2048-Dec-26 18:34 |
00:01 |
Juno |
0.00988314619120135 |
0.00986715714998788 |
0.00989913751426695 |
11.4819409119526 |
11.4819408047426 |
2469437.273330417 |
1.04494991618175 |
831.854708265295 |
55.5252953979386 |
16.6170616677857 |
7799.91431587519 |
T |
24 |
CATAB v2.0f-lin.ifort 2021-Feb-24 08:27:43 |
2021-Feb-24 08:27 |
|
|